Date String (YYYY-MM-DD hh:mm:ss) UTC,Instrument flags,absolute air pressure of the measurement (hPa),sample flow rate (lpm),inlet stack bypass flow (lpm),air temperature of the measurement (°C),ambient temperature measured by the external sensor (°C),aerosol sample conditioner tube jacket temperature (°C),OPC LED temperature (°C),internal box temperature (°C),relative humidity of the measurement (%),span deviation,mass concentration of particles derived from Lorenz-Mie calculation of OPC scattering (μg/m³),mass concentration of particles derived from Lorenz-Mie calculation of OPC scattering (μg/m³),mass concentration of particles derived from Lorenz-Mie calculation of OPC scattering (μg/m³)
DateTimeUTC,F1_M11,P_M11,Q1_M11,Q2_M11,T1_M11,T2_M11,T3_M11,T4_M11,T5_M11,U1_M11,ZSPAN_M11,X0_M11,X2_M11,X1_M11
2023-10-29 19:00:00,SystemResetWarning,0839.3,5.01,000.00,021.5,020.3,000.0,029.8,023.1,11.3,0000.0,0010.95,0007.27,0006.98
2023-10-29 19:01:00,SystemResetWarning,0839.3,5.01,000.00,021.5,020.3,000.0,029.8,023.1,11.4,0000.0,0010.92,0007.28,0006.99
2023-10-29 19:02:00,SystemResetWarning,0839.3,5.00,000.00,021.5,020.3,000.0,029.8,023.1,11.3,0000.0,0010.50,0007.26,0006.99
2023-10-29 19:03:00,SystemResetWarning,0839.3,4.99,000.00,021.5,020.3,000.0,029.8,023.1,11.3,0000.0,0010.31,0007.31,0007.00
2023-10-29 19:04:00,SystemResetWarning,0839.3,5.00,000.00,021.5,020.3,000.0,029.8,023.1,11.4,-000.3,0010.36,0007.33,0007.02
2023-10-29 19:05:00,SystemResetWarning,0839.2,4.99,000.00,021.5,020.3,000.0,029.8,023.1,11.5,-000.1,0010.33,0007.33,0007.02
2023-10-29 19:06:00,SystemResetWarning,0839.3,5.00,000.00,021.5,020.3,000.0,029.8,023.1,11.3,0000.3,0009.94,0007.31,0007.02
2023-10-29 19:07:00,SystemResetWarning,0839.2,5.00,000.00,021.5,020.3,000.0,029.8,023.1,11.4,0000.0,0009.44,0007.30,0007.01
2023-10-29 19:08:00,SystemResetWarning,0839.2,5.00,000.00,021.6,020.3,000.0,029.8,023.1,11.5,0000.3,0009.49,0007.33,0007.03
2023-10-29 19:09:00,SystemResetWarning,0839.2,5.00,000.00,021.6,020.3,000.0,029.8,023.1,11.4,0000.0,0009.55,0007.36,0007.05
2023-10-29 19:10:00,SystemResetWarning,0839.2,5.00,000.00,021.5,020.3,000.0,029.8,023.1,11.4,0000.0,0009.51,0007.37,0007.04
2023-10-29 19:11:00,SystemResetWarning,0839.2,5.00,000.00,021.5,020.3,000.0,029.8,023.1,11.4,0001.1,0009.58,0007.40,0007.06
2023-10-29 19:12:00,SystemResetWarning,0839.2,5.00,000.00,021.5,020.3,000.0,029.8,023.1,11.4,0001.8,0009.56,0007.39,0007.07
2023-10-29 19:13:00,SystemResetWarning,0839.2,5.00,000.00,021.5,020.3,000.0,029.8,023.1,11.4,0002.7,0009.61,0007.40,0007.08
2023-10-29 19:14:00,SystemResetWarning,0839.2,5.00,000.00,021.5,020.3,000.0,029.8,023.1,11.4,0000.2,0009.59,0007.37,0007.06
2023-10-29 19:15:00,SystemResetWarning,0839.2,5.00,000.00,021.6,020.3,000.0,029.8,023.1,11.4,0000.0,0009.65,0007.38,0007.07
2023-10-29 19:16:00,SystemResetWarning,0839.1,5.00,000.00,021.6,020.3,000.0,029.8,023.2,11.4,0000.0,0009.66,0007.38,0007.07
2023-10-29 19:17:00,SystemResetWarning,0839.1,5.00,000.00,021.6,020.3,000.0,029.8,023.2,11.3,0000.0,0009.65,0007.37,0007.07
2023-10-29 19:18:00,SystemResetWarning,0839.1,5.00,000.00,021.6,020.3,000.0,029.8,023.2,11.4,0000.0,0009.63,0007.36,0007.08
2023-10-29 19:19:00,SystemResetWarning,0839.2,5.00,000.00,021.6,020.3,000.0,029.8,023.1,11.4,0000.0,0009.98,0007.35,0007.07
2023-10-29 19:20:00,SystemResetWarning,0839.1,5.00,000.00,021.6,020.3,000.0,029.8,023.1,11.5,0000.0,0009.92,0007.31,0007.06
2023-10-29 19:21:00,SystemResetWarning,0839.1,5.00,000.00,021.6,020.3,000.0,029.8,023.1,11.4,0000.0,0009.88,0007.31,0007.07
2023-10-29 19:22:00,SystemResetWarning,0838.9,5.00,000.00,021.6,020.3,000.0,029.9,023.1,11.4,0000.0,0009.82,0007.29,0007.06
2023-10-29 19:23:00,SystemResetWarning,0838.8,5.01,000.00,021.6,020.3,000.0,029.9,023.2,11.3,0000.0,0009.81,0007.28,0007.05
2023-10-29 19:24:00,SystemResetWarning,0838.9,5.00,000.00,021.6,020.3,000.0,029.9,023.1,11.3,0000.0,0009.89,0007.29,0007.06
2023-10-29 19:25:00,SystemResetWarning,0838.9,4.99,000.00,021.5,020.3,000.0,029.9,023.1,11.5,0000.0,0009.87,0007.30,0007.07
2023-10-29 19:26:00,SystemResetWarning,0838.9,5.00,000.00,021.5,020.3,000.0,029.9,023.1,11.5,0000.0,0009.83,0007.30,0007.06
2023-10-29 19:27:00,SystemResetWarning,0838.9,5.00,000.00,021.5,020.3,000.0,029.9,023.1,11.5,0000.0,0009.89,0007.32,0007.06
2023-10-29 19:28:00,SystemResetWarning,0838.9,4.99,000.00,021.5,020.3,000.0,029.9,023.1,11.8,0000.0,0009.90,0007.34,0007.08
2023-10-29 19:29:00,SystemResetWarning,0838.9,5.00,000.00,021.5,020.3,000.0,029.9,023.1,11.4,0000.1,0009.93,0007.36,0007.10
2023-10-29 19:30:00,SystemResetWarning,0838.9,5.00,000.00,021.5,020.3,000.0,029.9,023.1,11.3,0000.1,0009.60,0007.37,0007.12
2023-10-29 19:31:00,SystemResetWarning,0838.9,4.99,000.00,021.5,020.3,000.0,029.9,023.1,11.2,-000.8,0009.52,0007.38,0007.12
2023-10-29 19:32:00,SystemResetWarning,0838.9,5.00,000.00,021.5,020.3,000.0,029.9,023.1,11.4,-001.2,0009.57,0007.39,0007.11
2023-10-29 19:33:00,SystemResetWarning,0838.9,5.01,000.00,021.5,020.3,000.0,029.9,023.1,11.4,-001.0,0009.54,0007.37,0007.12
2023-10-29 19:34:00,SystemResetWarning,0838.9,5.00,000.00,021.5,020.3,000.0,029.9,023.1,11.4,-001.2,0009.54,0007.36,0007.12
2023-10-29 19:35:00,SystemResetWarning,0838.9,5.00,000.00,021.6,020.3,000.0,029.9,023.1,11.3,-001.1,0009.37,0007.33,0007.11
2023-10-29 19:36:00,SystemResetWarning,0838.9,5.01,000.00,021.6,020.3,000.0,029.9,023.1,11.3,-000.6,0009.33,0007.31,0007.10
2023-10-29 19:37:00,SystemResetWarning,0838.8,5.00,000.00,021.6,020.3,000.0,029.9,023.1,11.4,-000.1,0009.33,0007.31,0007.10
2023-10-29 19:38:00,SystemResetWarning,0838.8,5.01,000.00,021.6,020.3,000.0,029.9,023.1,11.5,0000.3,0009.23,0007.28,0007.10
2023-10-29 19:39:00,SystemResetWarning,0838.8,5.00,000.00,021.6,020.4,000.0,029.9,023.1,11.6,0000.7,0009.18,0007.25,0007.10
2023-10-29 19:40:00,SystemResetWarning,0838.8,5.00,000.00,021.6,020.4,000.0,029.9,023.1,11.4,0001.1,0009.21,0007.25,0007.08
2023-10-29 19:41:00,SystemResetWarning,0838.8,5.01,000.00,021.6,020.4,000.0,029.9,023.1,11.3,0000.9,0009.16,0007.23,0007.07
2023-10-29 19:42:00,SystemResetWarning,0838.8,4.99,000.00,021.6,020.4,000.0,029.9,023.1,11.3,0000.3,0009.16,0007.22,0007.07
2023-10-29 19:43:00,SystemResetWarning,0838.8,4.99,000.00,021.6,020.4,000.0,029.9,023.1,11.4,0000.0,0009.12,0007.22,0007.08
2023-10-29 19:44:00,SystemResetWarning,0838.8,5.00,000.00,021.6,020.4,000.0,029.9,023.1,11.5,0000.0,0009.17,0007.24,0007.09
2023-10-29 19:45:00,SystemResetWarning,0838.8,5.01,000.00,021.6,020.4,000.0,029.9,023.1,11.4,0000.0,0009.79,0007.28,0007.10
2023-10-29 19:46:00,SystemResetWarning,0838.8,5.00,000.00,021.6,020.3,000.0,029.9,023.1,11.4,0000.0,0009.87,0007.30,0007.12
2023-10-29 19:47:00,SystemResetWarning,0838.7,5.00,000.00,021.6,020.3,000.0,029.9,023.1,11.3,0000.0,0009.85,0007.31,0007.14
2023-10-29 19:48:00,SystemResetWarning,0838.8,5.00,000.00,021.6,020.3,000.0,029.9,023.1,11.3,0000.0,0009.83,0007.31,0007.14
2023-10-29 19:49:00,SystemResetWarning,0838.7,5.00,000.00,021.6,020.3,000.0,029.9,023.1,11.4,0000.0,0009.93,0007.35,0007.15
2023-10-29 19:50:00,SystemResetWarning,0838.8,5.00,000.00,021.6,020.3,000.0,029.9,023.1,11.5,0000.0,0010.02,0007.37,0007.15
2023-10-29 19:51:00,SystemResetWarning,0838.7,5.01,000.00,021.5,020.2,000.0,029.9,023.1,11.1,0000.3,0010.02,0007.38,0007.16
2023-10-29 19:52:00,SystemResetWarning,0838.7,5.01,000.00,021.5,020.2,000.0,029.9,023.1,11.0,0000.5,0010.07,0007.40,0007.17
2023-10-29 19:53:00,SystemResetWarning,0838.7,5.00,000.00,021.5,020.2,000.0,029.9,023.1,11.0,0000.2,0010.06,0007.41,0007.17
2023-10-29 19:54:00,SystemResetWarning,0838.6,4.99,000.00,021.5,020.2,000.0,029.9,023.1,10.9,0000.4,0010.11,0007.43,0007.18
2023-10-29 19:55:00,SystemResetWarning,0838.7,4.99,000.00,021.5,020.2,000.0,029.9,023.0,11.0,0000.2,0010.16,0007.45,0007.19
2023-10-29 19:56:00,SystemResetWarning,0838.7,4.99,000.00,021.5,020.2,000.0,029.9,023.0,11.0,0000.0,0009.71,0007.45,0007.18
2023-10-29 19:57:00,SystemResetWarning,0838.6,5.00,000.00,021.5,020.2,000.0,029.9,023.0,11.1,0000.0,0009.57,0007.45,0007.18
2023-10-29 19:58:00,SystemResetWarning,0838.6,5.00,000.00,021.5,020.2,000.0,029.9,023.1,11.1,0000.0,0009.59,0007.47,0007.19
2023-10-29 19:59:00,SystemResetWarning,0838.7,5.00,000.00,021.5,020.2,000.0,029.9,023.1,11.0,0000.3,0009.58,0007.47,0007.20
